Погода в Севериках

Россия / Псковская область     55°49′48″N   30°35′54″E
темп.,
°C
ветер,
м/с
пор.,
м/с
влажн.,
%
обл.,
%
осадки,
мм/ч
давл.,
гПа
погр.,
м
10 мая, пн
пн1000:00+3юз22725 0.0 102412
03:00+3ю23725 0.0 102550
06:00+3ю267347 0.0 1026108
09:00+10ю365441 0.0 1026457
12:00+15ю444549 0.0 10261234
15:00+16ю34455 0.0 10261374
18:00+16ю23545 0.0 10251223
21:00+9ююв35815 0.0 102674
11 мая, вт
вт1100:00+7ю23805 0.0 102754
03:00+6ююв23805 0.0 102857
06:00+6юв247858 0.0 102871
09:00+12юв24555 0.0 1028404
12:00+17вюв34385 0.0 10271038
15:00+19в35335 0.0 10251220
18:00+18вюв354424 0.0 1024942
21:00+11вюв26765 0.0 1024103
12 мая, ср
ср1200:00+9вюв29893 0.0 1025169
03:00+9вюв24965 0.0 102485
06:00+9юв289930 0.0 1024222
09:00+14юв35675 0.0 1024681
12:00+18юв354641 0.0 10231333
15:00+17вюв245039 0.0 1021757
18:00+18св275896 0.0 1017677
21:00+13в61392100 2.5 10151062
13 мая, чт
чт1300:00+8юв5119421 0.9 1018740
03:00+6вюв399826 0.9 1018308
06:00+6всв3996100 0.0 1016354
09:00+8всв3997100 2.8 1015421
12:00+9юв389194 0.4 1015679
15:00+14юв696078 0.6 10141616
18:00+13ююв5868100 0.1 10141242
21:00+9вюв238845 0.1 101444
14 мая, пт
пт1400:00+8вюв31091100 0.0 1014206
03:00+9вюв31088100 0.0 1014246
06:00+9в3108939 0.0 1013272
09:00+15вюв5127297 0.1 1011601
12:00+19юв61265100 0.3 10091432
15:00+17юв51087100 2.8 10081144
18:00+16ююв3790100 3.6 1007552
21:00+13ююз11955 6.4 100711